Location: Mentone
(34.5413°N, 85.5351°W)
Time: 07:27:33
(UTC-05:00)

Okean O Rocket - Visible Passes

Search period start: 29 March 2015 00:00
Search period end: 08 April 2015 00:00
Orbit: 624 x 646 km, 98.0° (Epoch: 27 March)

Date Brightness Start Highest point End Pass type
(mag) Time Alt. Az. Time Alt. Az. Time Alt. Az.
29 Mar 4.0 03:42:22 10° NNE 03:43:36 19° NNE 03:43:36 19° NNE visible
30 Mar 3.5 04:04:24 10° N 04:06:00 22° N 04:06:00 22° N visible
31 Mar 3.4 04:26:41 10° N 04:28:24 21° NNW 04:28:24 21° NNW visible
01 Apr 4.4 03:12:26 10° NE 03:13:17 15° NE 03:13:17 15° NE visible
01 Apr 3.5 04:49:21 10° NNW 04:50:47 16° NW 04:50:47 16° NW visible
02 Apr 3.8 03:34:04 10° NNE 03:35:41 22° NNE 03:35:41 22° NNE visible
02 Apr 3.8 05:13:00 10° NW 05:13:10 10° NW 05:13:10 10° NW visible
03 Apr 3.2 03:55:59 10° N 03:58:04 28° N 03:58:04 28° N visible
04 Apr 3.0 04:18:10 10° N 04:20:27 27° NNW 04:20:27 27° NNW visible
05 Apr 4.4 03:04:19 10° NE 03:05:20 15° NE 03:05:20 15° NE visible
05 Apr 3.2 04:40:39 10° NNW 04:42:50 21° NW 04:42:50 21° NW visible
06 Apr 3.7 03:25:47 10° NNE 03:27:43 24° NE 03:27:43 24° NE visible
06 Apr 3.6 05:03:43 10° NW 05:05:13 13° NW 05:05:13 13° NW visible
07 Apr 3.0 03:47:35 10° NNE 03:50:06 34° NNE 03:50:06 34° NNE visible
